Погода в Раздольном

Россия / Приморский край     43°31′04″N   131°54′14″E
темп.,
°C
ветер,
м/с
пор.,
м/с
влажн.,
%
обл.,
%
осадки,
мм/ч
давл.,
гПа
погр.,
м
17 апреля, сб
сб1701:00+5ю1393100 0.0 1011120
04:00+4ююз2498100 0.0 1011113
07:00+3ююв229944 0.0 101267
10:00+8ююз247122 0.0 1013368
13:00+12ю344299 0.0 1012993
16:00+14ю23295 0.0 10101249
19:00+10юз254469 0.0 1010289
22:00+7вюв0055100 0.0 101010
18 апреля, вс
вс1801:00+6ссз225956 0.0 100925
04:00+5ссз41157100 0.0 1008284
07:00+5с51465100 0.0 1009573
10:00+9с7145662 0.0 10081391
13:00+14с813405 0.0 10062014
16:00+15с8133561 0.0 10052423
19:00+13с6124237 0.0 10051741
22:00+11ссз4114731 0.0 1007402
19 апреля, пн
пн1901:00+8сз27561 0.0 1007136
04:00+7с22602 0.0 100719
07:00+6ссв11640 0.0 100710
10:00+14сз25380 0.0 1006731
13:00+18ссз472390 0.0 10042042
16:00+19юз37213 0.0 10031930
19:00+14ю343739 0.0 1004178
22:00+10ююв22490 0.0 100635
20 апреля, вт
вт2001:00+9з115125 0.0 100721
04:00+9ссв6135572 0.0 1011980
07:00+6с613372 0.0 10151029
10:00+9с610260 0.0 10171296
13:00+15сз611160 0.0 10151977
16:00+16сз713140 0.0 10152222
19:00+15сз510200 0.0 10171609
22:00+11сз39270 0.0 1019238
21 апреля, ср
ср2101:00+8сз11350 0.0 102110
04:00+6юв11373 0.0 102210
07:00+6юв11400 0.0 102310
10:00+14ю23250 0.0 1022375
13:00+18ююз56190 0.0 1021716
16:00+18ю69235 0.0 1018541
19:00+14ююв5942100 0.0 1019423
22:00+9ююв31072100 0.0 1019320